| time (UTC) | temp F | wind direction | speed knots | gust knots | rain 1hr in | rain 24hr in | rain mn in | humidity % | barometer mb |
| 20260506051031 | 55 | 263 | 5.2 | 0.0 | 0.00 | 0.00 | 0.00 | 92 | 1006.5 |
| 20260506050530 | 55 | 243 | 4.3 | 0.0 | 0.00 | 0.00 | 0.00 | 92 | 1006.8 |
| 20260506045025 | 56 | 257 | 1.7 | 0.0 | 0.00 | 0.00 | 0.00 | 92 | 1007.0 |
| 20260506044525 | 56 | 218 | 0.0 | 0.0 | 0.00 | 0.00 | 0.00 | 93 | 1006.9 |
| 20260506044024 | 56 | 179 | 0.0 | 0.0 | 0.00 | 0.00 | 0.00 | 93 | 1006.9 |
| 20260506043527 | 56 | 179 | 0.0 | 0.0 | 0.00 | 0.00 | 0.00 | 93 | 1007.1 |
| 20260506043022 | 56 | 179 | 0.0 | 0.0 | 0.00 | 0.00 | 0.00 | 93 | 1007.3 |
| 20260506042522 | 56 | 179 | 0.0 | 0.0 | 0.00 | 0.00 | 0.00 | 93 | 1007.2 |
| 20260506042020 | 56 | 179 | 0.0 | 0.0 | 0.00 | 0.00 | 0.00 | 93 | 1007.3 |
| 20260506041520 | 56 | 179 | 0.0 | 0.0 | 0.00 | 0.00 | 0.00 | 93 | 1007.6 |
| 20260506041020 | 56 | 179 | 0.0 | 0.0 | 0.00 | 0.00 | 0.00 | 93 | 1007.5 |
| 20260506040521 | 56 | 179 | 0.0 | 0.0 | 0.00 | 0.00 | 0.00 | 93 | 1007.5 |
| 20260506040023 | 56 | 179 | 0.0 | 0.0 | 0.00 | 0.00 | 0.00 | 93 | 1007.5 |
| 20260506035519 | 56 | 177 | 0.0 | 0.0 | 0.00 | 0.00 | 0.00 | 93 | 1007.5 |
| 20260506035016 | 56 | 153 | 0.9 | 0.0 | 0.00 | 0.00 | 0.00 | 93 | 1007.3 |
| 20260506034521 | 56 | 153 | 0.9 | 0.0 | 0.00 | 0.00 | 0.00 | 93 | 1007.1 |
| 20260506034017 | 56 | 152 | 0.9 | 0.0 | 0.00 | 0.00 | 0.00 | 94 | 1007.2 |
| 20260506033516 | 56 | 149 | 2.6 | 0.0 | 0.00 | 0.00 | 0.00 | 93 | 1007.2 |
| 20260506033015 | 56 | 149 | 3.5 | 0.0 | 0.00 | 0.00 | 0.00 | 93 | 1006.9 |
| 20260506032515 | 56 | 149 | 1.7 | 0.0 | 0.00 | 0.00 | 0.00 | 93 | 1007.1 |
| 20260506032015 | 56 | 182 | 0.0 | 0.0 | 0.00 | 0.00 | 0.00 | 93 | 1007.1 |
| 20260506031517 | 56 | 182 | 0.0 | 0.0 | 0.00 | 0.00 | 0.00 | 93 | 1007.0 |
| 20260506031015 | 56 | 182 | 1.7 | 0.0 | 0.00 | 0.00 | 0.00 | 93 | 1006.9 |
| 20260506030514 | 55 | 182 | 1.7 | 0.0 | 0.00 | 0.00 | 0.00 | 93 | 1006.8 |
| 20260506030031 | 55 | 268 | 0.9 | 0.0 | 0.00 | 0.00 | 0.00 | 92 | 1006.8 |
| 20260506025514 | 55 | 268 | 1.7 | 0.0 | 0.00 | 0.00 | 0.00 | 92 | 1006.9 |
| 20260506025014 | 55 | 268 | 4.3 | 0.0 | 0.00 | 0.00 | 0.00 | 92 | 1006.9 |
| 20260506024528 | 56 | 277 | 5.2 | 0.0 | 0.00 | 0.00 | 0.00 | 92 | 1006.9 |
| 20260506024012 | 56 | 275 | 6.1 | 0.0 | 0.00 | 0.00 | 0.00 | 92 | 1006.7 |
| 20260506023512 | 56 | 255 | 5.2 | 0.0 | 0.00 | 0.00 | 0.00 | 92 | 1006.5 |
| 20260506023013 | 56 | 246 | 3.5 | 0.0 | 0.00 | 0.00 | 0.00 | 92 | 1006.5 |
| 20260506022511 | 56 | 248 | 3.5 | 0.0 | 0.00 | 0.00 | 0.00 | 91 | 1006.6 |
| 20260506022011 | 56 | 232 | 2.6 | 0.0 | 0.00 | 0.00 | 0.00 | 91 | 1006.6 |
| 20260506021511 | 56 | 244 | 2.6 | 0.0 | 0.00 | 0.00 | 0.00 | 91 | 1006.6 |
| 20260506021013 | 56 | 245 | 2.6 | 0.0 | 0.00 | 0.00 | 0.00 | 91 | 1006.6 |
| 20260506020509 | 57 | 246 | 3.5 | 0.0 | 0.00 | 0.00 | 0.00 | 90 | 1006.6 |
| 20260506020009 | 57 | 244 | 1.7 | 0.0 | 0.00 | 0.00 | 0.00 | 91 | 1006.4 |
| 20260506015509 | 57 | 205 | 1.7 | 0.0 | 0.00 | 0.00 | 0.00 | 92 | 1006.4 |
| 20260506015009 | 57 | 199 | 1.7 | 0.0 | 0.00 | 0.00 | 0.00 | 92 | 1006.5 |
| 20260506014508 | 57 | 149 | 0.9 | 0.0 | 0.00 | 0.00 | 0.00 | 92 | 1006.4 |
| 20260506014007 | 57 | 138 | 1.7 | 0.0 | 0.00 | 0.00 | 0.00 | 93 | 1006.2 |
| 20260506013506 | 57 | 136 | 2.6 | 0.0 | 0.00 | 0.00 | 0.00 | 93 | 1006.0 |
| 20260506013008 | 57 | 136 | 3.5 | 0.0 | 0.00 | 0.00 | 0.00 | 92 | 1005.9 |
| 20260506012505 | 57 | 136 | 1.7 | 0.0 | 0.00 | 0.00 | 0.00 | 92 | 1005.7 |
| 20260506012005 | 57 | 136 | 1.7 | 0.0 | 0.00 | 0.00 | 0.00 | 92 | 1005.7 |
| 20260506011504 | 57 | 136 | 1.7 | 0.0 | 0.00 | 0.00 | 0.00 | 92 | 1005.8 |
| 20260506011004 | 58 | 131 | 2.6 | 0.0 | 0.00 | 0.00 | 0.00 | 92 | 1005.6 |
| 20260506010504 | 58 | 130 | 3.5 | 0.0 | 0.00 | 0.00 | 0.00 | 92 | 1005.5 |
| 20260506010009 | 58 | 130 | 3.5 | 0.0 | 0.00 | 0.00 | 0.00 | 92 | 1005.6 |
| 20260506005503 | 58 | 131 | 4.3 | 0.0 | 0.00 | 0.00 | 0.00 | 92 | 1005.5 |
| 20260506005005 | 58 | 131 | 4.3 | 0.0 | 0.00 | 0.00 | 0.00 | 91 | 1005.6 |
| 20260506004504 | 58 | 135 | 4.3 | 0.0 | 0.00 | 0.00 | 0.00 | 91 | 1005.7 |
| 20260506004003 | 58 | 137 | 3.5 | 0.0 | 0.00 | 0.00 | 0.00 | 92 | 1005.6 |
| 20260506003503 | 58 | 143 | 2.6 | 0.0 | 0.00 | 0.00 | 0.00 | 92 | 1005.6 |
| 20260506003002 | 58 | 150 | 2.6 | 0.0 | 0.00 | 0.00 | 0.00 | 92 | 1005.5 |
| 20260506002504 | 58 | 148 | 2.6 | 0.0 | 0.00 | 0.00 | 0.00 | 92 | 1005.4 |
| 20260506002001 | 58 | 142 | 2.6 | 0.0 | 0.00 | 0.00 | 0.00 | 92 | 1005.1 |
| 20260506001502 | 58 | 140 | 2.6 | 0.0 | 0.00 | 0.00 | 0.00 | 91 | 1004.9 |
| 20260506001001 | 59 | 141 | 2.6 | 0.0 | 0.00 | 0.00 | 0.00 | 90 | 1004.9 |
| 20260506000502 | 59 | 141 | 1.7 | 0.0 | 0.00 | 0.00 | 0.00 | 90 | 1004.8 |
| 20260506000001 | 59 | 141 | 2.6 | 0.0 | 0.00 | 0.00 | 0.00 | 91 | 1004.7 |
| 20260505235500 | 59 | 141 | 2.6 | 0.0 | 0.00 | 0.00 | 0.00 | 91 | 1004.8 |
| 20260505235101 | 59 | 140 | 2.6 | 0.0 | 0.00 | 0.00 | 0.00 | 91 | 1004.8 |
| 20260505234600 | 59 | 140 | 0.9 | 0.0 | 0.00 | 0.00 | 0.00 | 90 | 1004.7 |
| 20260505234100 | 59 | 140 | 0.0 | 0.0 | 0.00 | 0.00 | 0.00 | 89 | 1004.8 |
| 20260505233600 | 59 | 140 | 0.0 | 0.0 | 0.00 | 0.00 | 0.00 | 90 | 1004.7 |
| 20260505233059 | 59 | 140 | 0.0 | 0.0 | 0.00 | 0.00 | 0.00 | 90 | 1004.7 |
| 20260505232559 | 59 | 140 | 0.0 | 0.0 | 0.00 | 0.00 | 0.00 | 90 | 1004.5 |
| 20260505232059 | 59 | 140 | 0.0 | 0.0 | 0.00 | 0.00 | 0.00 | 90 | 1004.4 |
| 20260505231559 | 59 | 140 | 0.9 | 0.0 | 0.00 | 0.00 | 0.00 | 90 | 1004.4 |
| 20260505231058 | 59 | 140 | 0.9 | 0.0 | 0.00 | 0.00 | 0.00 | 90 | 1004.3 |
| 20260505230558 | 59 | 140 | 0.0 | 0.0 | 0.00 | 0.00 | 0.00 | 90 | 1004.4 |
| 20260505230106 | 59 | 140 | 0.9 | 0.0 | 0.00 | 0.00 | 0.00 | 89 | 1004.4 |
| 20260505225558 | 59 | 140 | 0.9 | 0.0 | 0.00 | 0.00 | 0.00 | 89 | 1004.4 |
| 20260505225058 | 59 | 140 | 0.0 | 0.0 | 0.00 | 0.00 | 0.00 | 88 | 1004.3 |
| 20260505224558 | 59 | 140 | 0.9 | 0.0 | 0.00 | 0.00 | 0.00 | 88 | 1004.5 |
| 20260505224057 | 60 | 140 | 1.7 | 0.0 | 0.00 | 0.00 | 0.00 | 88 | 1004.5 |
| 20260505223557 | 60 | 140 | 2.6 | 0.0 | 0.00 | 0.00 | 0.00 | 87 | 1004.5 |
| 20260505223109 | 60 | 140 | 3.5 | 0.0 | 0.00 | 0.00 | 0.00 | 87 | 1004.4 |
| 20260505222556 | 60 | 130 | 3.5 | 0.0 | 0.00 | 0.00 | 0.00 | 87 | 1004.4 |
| 20260505222056 | 60 | 148 | 2.6 | 0.0 | 0.00 | 0.00 | 0.00 | 87 | 1004.5 |
| 20260505221557 | 60 | 159 | 2.6 | 0.0 | 0.00 | 0.00 | 0.00 | 86 | 1004.5 |
| 20260505221101 | 60 | 147 | 3.5 | 0.0 | 0.00 | 0.00 | 0.00 | 86 | 1004.5 |
| 20260505220600 | 60 | 139 | 3.5 | 0.0 | 0.00 | 0.00 | 0.00 | 85 | 1004.5 |
| 20260505220059 | 60 | 178 | 2.6 | 0.0 | 0.00 | 0.00 | 0.00 | 85 | 1005.2 |
| 20260505215555 | 60 | 224 | 2.6 | 0.0 | 0.00 | 0.00 | 0.00 | 86 | 1005.5 |
| 20260505215055 | 60 | 224 | 1.7 | 0.0 | 0.00 | 0.00 | 0.00 | 86 | 1005.3 |
| 20260505214555 | 59 | 162 | 0.9 | 0.0 | 0.00 | 0.00 | 0.00 | 87 | 1004.8 |
| 20260505214055 | 59 | 205 | 0.9 | 0.0 | 0.00 | 0.00 | 0.00 | 85 | 1004.7 |
| 20260505213559 | 59 | 234 | 2.6 | 0.0 | 0.00 | 0.00 | 0.00 | 85 | 1004.6 |
| 20260505213059 | 59 | 226 | 4.3 | 0.0 | 0.00 | 0.00 | 0.00 | 83 | 1004.6 |
| 20260505212554 | 59 | 246 | 4.3 | 0.0 | 0.00 | 0.00 | 0.00 | 83 | 1004.5 |
| 20260505212054 | 59 | 248 | 7.0 | 0.0 | 0.00 | 0.00 | 0.00 | 82 | 1004.3 |
| 20260505211554 | 58 | 292 | 12.2 | 0.0 | 0.00 | 0.00 | 0.00 | 81 | 1004.1 |
| 20260505211054 | 59 | 294 | 17.4 | 0.0 | 0.00 | 0.00 | 0.00 | 80 | 1004.0 |
| 20260505210554 | 59 | 298 | 23.5 | 0.0 | 0.00 | 0.00 | 0.00 | 80 | 1003.7 |
| 20260505210053 | 60 | 296 | 26.1 | 0.0 | 0.00 | 0.00 | 0.00 | 79 | 1003.6 |
| 20260505205554 | 61 | 288 | 25.2 | 0.0 | 0.00 | 0.00 | 0.00 | 76 | 1004.1 |
| 20260505205053 | 61 | 300 | 24.3 | 0.0 | 0.00 | 0.00 | 0.00 | 76 | 1004.2 |
| 20260505204558 | 62 | 281 | 21.7 | 0.0 | 0.00 | 0.00 | 0.00 | 73 | 1004.6 |
| 20260505204053 | 62 | 313 | 20.0 | 0.0 | 0.00 | 0.00 | 0.00 | 72 | 1003.9 |
| 20260505203553 | 63 | 303 | 19.1 | 0.0 | 0.00 | 0.00 | 0.00 | 73 | 1003.9 |
| 20260505203102 | 64 | 305 | 13.9 | 0.0 | 0.00 | 0.00 | 0.00 | 72 | 1004.0 |
| 20260505202553 | 64 | 293 | 7.0 | 0.0 | 0.00 | 0.00 | 0.00 | 74 | 1003.6 |
| 20260505202053 | 64 | 267 | 3.5 | 0.0 | 0.00 | 0.00 | 0.00 | 73 | 1003.4 |
| 20260505201552 | 64 | 238 | 2.6 | 0.0 | 0.00 | 0.00 | 0.00 | 75 | 1002.6 |
| 20260505201052 | 64 | 238 | 2.6 | 0.0 | 0.00 | 0.00 | 0.00 | 75 | 1002.7 |
| 20260505200556 | 64 | 236 | 2.6 | 0.0 | 0.00 | 0.00 | 0.00 | 77 | 1002.7 |
| 20260505200052 | 63 | 220 | 3.5 | 0.0 | 0.00 | 0.00 | 0.00 | 79 | 1002.6 |
| 20260505195553 | 62 | 221 | 3.5 | 0.0 | 0.00 | 0.00 | 0.00 | 81 | 1002.4 |
| 20260505195052 | 61 | 240 | 2.6 | 0.0 | 0.00 | 0.00 | 0.00 | 85 | 1002.5 |
| 20260505194604 | 60 | 146 | 3.5 | 0.0 | 0.00 | 0.00 | 0.00 | 86 | 1002.4 |
| 20260505194055 | 60 | 229 | 9.6 | 0.0 | 0.00 | 0.00 | 0.00 | 83 | 1002.6 |
| 20260505193551 | 60 | 269 | 16.5 | 0.0 | 0.00 | 0.00 | 0.00 | 82 | 1002.3 |
| 20260505193050 | 60 | 283 | 21.7 | 0.0 | 0.00 | 0.00 | 0.00 | 80 | 1002.5 |
| 20260505192550 | 60 | 272 | 23.5 | 0.0 | 0.00 | 0.00 | 0.00 | 79 | 1003.3 |
| 20260505192050 | 61 | 290 | 21.7 | 0.0 | 0.00 | 0.00 | 0.00 | 80 | 1003.5 |
| 20260505191551 | 62 | 275 | 18.2 | 0.0 | 0.00 | 0.00 | 0.00 | 76 | 1003.9 |
| 20260505191050 | 63 | 286 | 16.5 | 0.0 | 0.00 | 0.00 | 0.00 | 73 | 1003.3 |
| 20260505190553 | 64 | 265 | 13.9 | 0.0 | 0.00 | 0.00 | 0.00 | 71 | 1003.2 |
| 20260505190050 | 66 | 247 | 10.4 | 0.0 | 0.00 | 0.00 | 0.00 | 69 | 1003.0 |
| 20260505185554 | 67 | 232 | 13.9 | 0.0 | 0.00 | 0.00 | 0.00 | 67 | 1002.5 |
| 20260505185050 | 68 | 236 | 22.6 | 0.0 | 0.00 | 0.00 | 0.00 | 65 | 1002.2 |
| 20260505184550 | 71 | 238 | 27.8 | 0.0 | 0.00 | 0.00 | 0.00 | 59 | 1002.3 |
| 20260505184050 | 74 | 261 | 21.7 | 0.0 | 0.00 | 0.00 | 0.00 | 55 | 1002.3 |
| 20260505183552 | 76 | 240 | 14.8 | 0.0 | 0.00 | 0.00 | 0.00 | 44 | 1002.4 |
| 20260505183058 | 76 | 229 | 13.9 | 0.0 | 0.00 | 0.00 | 0.00 | 43 | 1001.6 |
| 20260505182548 | 76 | 229 | 14.8 | 0.0 | 0.00 | 0.00 | 0.00 | 43 | 1001.3 |
| 20260505182048 | 77 | 238 | 18.2 | 0.0 | 0.00 | 0.00 | 0.00 | 40 | 1001.4 |
| 20260505181548 | 77 | 229 | 17.4 | 0.0 | 0.00 | 0.00 | 0.00 | 41 | 1001.4 |
| 20260505181048 | 77 | 243 | 15.6 | 0.0 | 0.00 | 0.00 | 0.00 | 38 | 1001.5 |
| 20260505180547 | 77 | 224 | 20.0 | 0.0 | 0.00 | 0.00 | 0.00 | 39 | 1001.5 |
| 20260505180049 | 77 | 203 | 21.7 | 0.0 | 0.00 | 0.00 | 0.00 | 39 | 1001.5 |
| 20260505175547 | 77 | 222 | 18.2 | 0.0 | 0.00 | 0.00 | 0.00 | 40 | 1001.5 |
| 20260505175047 | 78 | 232 | 18.2 | 0.0 | 0.00 | 0.00 | 0.00 | 39 | 1001.5 |
| 20260505174550 | 78 | 227 | 19.1 | 0.0 | 0.00 | 0.00 | 0.00 | 37 | 1001.6 |
| 20260505174047 | 79 | 212 | 17.4 | 0.0 | 0.00 | 0.00 | 0.00 | 37 | 1001.6 |
| 20260505173545 | 79 | 205 | 17.4 | 0.0 | 0.00 | 0.00 | 0.00 | 37 | 1001.7 |
| 20260505173049 | 80 | 360 | 20.0 | 0.0 | 0.00 | 0.00 | 0.00 | 38 | 1001.7 |
| 20260505172548 | 80 | 229 | 20.0 | 0.0 | 0.00 | 0.00 | 0.00 | 38 | 1001.8 |
| 20260505172044 | 81 | 234 | 19.1 | 0.0 | 0.00 | 0.00 | 0.00 | 37 | 1001.7 |
| 20260505171543 | 80 | 219 | 18.2 | 0.0 | 0.00 | 0.00 | 0.00 | 39 | 1001.9 |
| 20260505171042 | 80 | 236 | 20.9 | 0.0 | 0.00 | 0.00 | 0.00 | 39 | 1001.9 |
| 20260505170541 | 80 | 229 | 20.0 | 0.0 | 0.00 | 0.00 | 0.00 | 41 | 1002.0 |
| 20260505170041 | 80 | 207 | 20.0 | 0.0 | 0.00 | 0.00 | 0.00 | 41 | 1002.2 |
| 20260505165539 | 80 | 55 | 21.7 | 0.0 | 0.00 | 0.00 | 0.00 | 41 | 1002.4 |
| 20260505165039 | 80 | 232 | 15.6 | 0.0 | 0.00 | 0.00 | 0.00 | 41 | 1002.3 |
| 20260505164549 | 79 | 219 | 13.9 | 0.0 | 0.00 | 0.00 | 0.00 | 44 | 1002.4 |
| 20260505164038 | 79 | 219 | 17.4 | 0.0 | 0.00 | 0.00 | 0.00 | 40 | 1002.4 |
| 20260505163534 | 79 | 221 | 18.2 | 0.0 | 0.00 | 0.00 | 0.00 | 39 | 1002.5 |
| 20260505163033 | 78 | 215 | 20.9 | 0.0 | 0.00 | 0.00 | 0.00 | 45 | 1002.6 |
| 20260505162532 | 78 | 200 | 21.7 | 0.0 | 0.00 | 0.00 | 0.00 | 43 | 1002.7 |
| 20260505162032 | 77 | 253 | 20.9 | 0.0 | 0.00 | 0.00 | 0.00 | 45 | 1002.7 |
| 20260505161531 | 77 | 211 | 19.1 | 0.0 | 0.00 | 0.00 | 0.00 | 45 | 1002.9 |
| 20260505161030 | 77 | 246 | 16.5 | 0.0 | 0.00 | 0.00 | 0.00 | 49 | 1003.0 |
| 20260505160528 | 76 | 216 | 16.5 | 0.0 | 0.00 | 0.00 | 0.00 | 48 | 1003.0 |
| 20260505153018 | 72 | 223 | 13.9 | 0.0 | 0.00 | 0.00 | 0.00 | 60 | 1003.6 |
| 20260505152517 | 71 | 250 | 13.0 | 0.0 | 0.00 | 0.00 | 0.00 | 60 | 1003.7 |
| 20260505152015 | 70 | 202 | 10.4 | 0.0 | 0.00 | 0.00 | 0.00 | 62 | 1003.9 |
| 20260505151517 | 69 | 219 | 8.7 | 0.0 | 0.00 | 0.00 | 0.00 | 64 | 1003.8 |
| 20260505151012 | 66 | 222 | 7.8 | 0.0 | 0.00 | 0.00 | 0.00 | 67 | 1004.0 |
| 20260505150511 | 65 | 228 | 7.8 | 0.0 | 0.00 | 0.00 | 0.00 | 72 | 1004.0 |
| 20260505140504 | 56 | 317 | 2.6 | 0.0 | 0.00 | 0.00 | 0.00 | 84 | 1004.6 |
| 20260505124559 | 59 | 212 | 3.5 | 0.0 | 0.00 | 0.00 | 0.00 | 74 | 1005.2 |
| 20260505124059 | 59 | 133 | 4.3 | 0.0 | 0.00 | 0.00 | 0.00 | 73 | 1004.9 |
| 20260505123557 | 59 | 138 | 5.2 | 0.0 | 0.00 | 0.00 | 0.00 | 74 | 1004.8 |
| 20260505123104 | 58 | 143 | 4.3 | 0.0 | 0.00 | 0.00 | 0.00 | 74 | 1004.8 |
| 20260505122557 | 58 | 133 | 4.3 | 0.0 | 0.00 | 0.00 | 0.00 | 74 | 1004.9 |
| 20260505122053 | 57 | 149 | 5.2 | 0.0 | 0.00 | 0.00 | 0.00 | 75 | 1004.9 |
| 20260505121553 | 57 | 150 | 5.2 | 0.0 | 0.00 | 0.00 | 0.00 | 75 | 1004.9 |
| 20260505121051 | 56 | 136 | 6.1 | 0.0 | 0.00 | 0.00 | 0.00 | 77 | 1005.0 |
| 20260505120550 | 56 | 161 | 7.0 | 0.0 | 0.00 | 0.00 | 0.00 | 78 | 1005.1 |
| 20260505120048 | 55 | 132 | 7.0 | 0.0 | 0.00 | 0.00 | 0.00 | 78 | 1005.1 |
| 20260505115548 | 54 | 131 | 7.0 | 0.0 | 0.00 | 0.00 | 0.00 | 80 | 1005.1 |
| 20260505115046 | 54 | 153 | 5.2 | 0.0 | 0.00 | 0.00 | 0.00 | 81 | 1005.4 |
| 20260505114547 | 53 | 125 | 2.6 | 0.0 | 0.00 | 0.00 | 0.00 | 85 | 1005.4 |
| 20260505114046 | 53 | 284 | 2.6 | 0.0 | 0.00 | 0.00 | 0.00 | 86 | 1005.4 |
| 20260505113545 | 52 | 284 | 2.6 | 0.0 | 0.00 | 0.00 | 0.00 | 87 | 1005.4 |
| 20260505113044 | 52 | 306 | 1.7 | 0.0 | 0.00 | 0.00 | 0.00 | 87 | 1005.4 |
| 20260505112544 | 52 | 306 | 2.6 | 0.0 | 0.00 | 0.00 | 0.00 | 87 | 1005.3 |
| 20260505112043 | 52 | 309 | 2.6 | 0.0 | 0.00 | 0.00 | 0.00 | 87 | 1005.3 |
| 20260505111551 | 52 | 309 | 2.6 | 0.0 | 0.00 | 0.00 | 0.00 | 86 | 1005.2 |
| 20260505111041 | 52 | 294 | 2.6 | 0.0 | 0.00 | 0.00 | 0.00 | 85 | 1005.0 |
| 20260505110540 | 52 | 294 | 2.6 | 0.0 | 0.00 | 0.00 | 0.00 | 86 | 1004.9 |
| 20260505102039 | 52 | 123 | 5.2 | 0.0 | 0.00 | 0.00 | 0.00 | 82 | 1004.7 |
| 20260505101539 | 52 | 128 | 4.3 | 0.0 | 0.00 | 0.00 | 0.00 | 82 | 1004.8 |
| 20260505101042 | 51 | 144 | 3.5 | 0.0 | 0.00 | 0.00 | 0.00 | 82 | 1004.9 |
| 20260505100542 | 51 | 159 | 4.3 | 0.0 | 0.00 | 0.00 | 0.00 | 81 | 1004.8 |
| 20260505100048 | 51 | 161 | 3.5 | 0.0 | 0.00 | 0.00 | 0.00 | 84 | 1004.9 |
| 20260505095541 | 51 | 157 | 0.0 | 0.0 | 0.00 | 0.00 | 0.00 | 84 | 1004.9 |
| 20260505095038 | 51 | 339 | 0.0 | 0.0 | 0.00 | 0.00 | 0.00 | 84 | 1004.8 |
| 20260505094539 | 51 | 339 | 0.0 | 0.0 | 0.00 | 0.00 | 0.00 | 83 | 1004.8 |
| 20260505094037 | 51 | 339 | 0.0 | 0.0 | 0.00 | 0.00 | 0.00 | 83 | 1004.4 |
| 20260505093538 | 51 | 339 | 0.0 | 0.0 | 0.00 | 0.00 | 0.00 | 80 | 1004.6 |
| 20260505093039 | 51 | 339 | 0.0 | 0.0 | 0.00 | 0.00 | 0.00 | 81 | 1004.7 |
| 20260505092537 | 52 | 339 | 0.0 | 0.0 | 0.00 | 0.00 | 0.00 | 81 | 1004.6 |
| 20260505092036 | 52 | 339 | 0.9 | 0.0 | 0.00 | 0.00 | 0.00 | 81 | 1004.7 |
| 20260505091551 | 52 | 339 | 1.7 | 0.0 | 0.00 | 0.00 | 0.00 | 81 | 1004.7 |
| 20260505091039 | 52 | 341 | 0.9 | 0.0 | 0.00 | 0.00 | 0.00 | 82 | 1004.6 |
| 20260505090538 | 52 | 341 | 0.9 | 0.0 | 0.00 | 0.00 | 0.00 | 82 | 1004.4 |
| 20260505090050 | 52 | 341 | 2.6 | 0.0 | 0.00 | 0.00 | 0.00 | 83 | 1004.6 |
| 20260505085534 | 52 | 338 | 3.5 | 0.0 | 0.00 | 0.00 | 0.00 | 82 | 1004.7 |
| 20260505085034 | 53 | 338 | 3.5 | 0.0 | 0.00 | 0.00 | 0.00 | 80 | 1004.8 |
| 20260505084537 | 53 | 329 | 1.7 | 0.0 | 0.00 | 0.00 | 0.00 | 80 | 1004.8 |
| 20260505084034 | 54 | 178 | 0.0 | 0.0 | 0.00 | 0.00 | 0.00 | 75 | 1004.8 |
| 20260505083534 | 54 | 178 | 0.9 | 0.0 | 0.00 | 0.00 | 0.00 | 74 | 1004.7 |
| 20260505083041 | 54 | 178 | 0.9 | 0.0 | 0.00 | 0.00 | 0.00 | 73 | 1004.9 |
| 20260505082533 | 54 | 66 | 0.9 | 0.0 | 0.00 | 0.00 | 0.00 | 70 | 1005.0 |
| 20260505082033 | 54 | 66 | 1.7 | 0.0 | 0.00 | 0.00 | 0.00 | 70 | 1005.0 |
| 20260505081550 | 54 | 308 | 4.3 | 0.0 | 0.00 | 0.00 | 0.00 | 70 | 1005.0 |
| 20260505081032 | 54 | 123 | 6.1 | 0.0 | 0.00 | 0.00 | 0.00 | 68 | 1004.9 |
| 20260505080534 | 54 | 139 | 7.0 | 0.0 | 0.00 | 0.00 | 0.00 | 67 | 1004.7 |
| 20260505080039 | 54 | 145 | 7.0 | 0.0 | 0.00 | 0.00 | 0.00 | 68 | 1004.7 |
| 20260505075529 | 53 | 132 | 6.1 | 0.0 | 0.00 | 0.00 | 0.00 | 69 | 1004.7 |
| 20260505075028 | 53 | 132 | 7.0 | 0.0 | 0.00 | 0.00 | 0.00 | 68 | 1004.7 |
| 20260505074528 | 53 | 142 | 7.0 | 0.0 | 0.00 | 0.00 | 0.00 | 69 | 1004.7 |
| 20260505074027 | 53 | 124 | 6.1 | 0.0 | 0.00 | 0.00 | 0.00 | 70 | 1004.7 |
| 20260505073527 | 52 | 135 | 6.1 | 0.0 | 0.00 | 0.00 | 0.00 | 71 | 1004.7 |
| 20260505073024 | 52 | 138 | 6.1 | 0.0 | 0.00 | 0.00 | 0.00 | 71 | 1004.7 |
| 20260505072521 | 51 | 140 | 6.1 | 0.0 | 0.00 | 0.00 | 0.00 | 72 | 1004.6 |
| 20260505072020 | 50 | 136 | 6.1 | 0.0 | 0.00 | 0.00 | 0.00 | 73 | 1004.5 |
| 20260505071525 | 50 | 134 | 6.1 | 0.0 | 0.00 | 0.00 | 0.00 | 75 | 1004.6 |
| 20260505071018 | 49 | 137 | 5.2 | 0.0 | 0.00 | 0.00 | 0.00 | 77 | 1004.6 |
| 20260505070518 | 49 | 142 | 3.5 | 0.0 | 0.00 | 0.00 | 0.00 | 76 | 1004.7 |
| 20260505070020 | 49 | 137 | 0.9 | 0.0 | 0.00 | 0.00 | 0.00 | 76 | 1004.6 |
| 20260505065516 | 49 | 198 | 0.9 | 0.0 | 0.00 | 0.00 | 0.00 | 76 | 1004.7 |
| 20260505065016 | 48 | 200 | 1.7 | 0.0 | 0.00 | 0.00 | 0.00 | 77 | 1004.7 |
| 20260505064516 | 48 | 133 | 3.5 | 0.0 | 0.00 | 0.00 | 0.00 | 77 | 1004.8 |
| 20260505064015 | 48 | 157 | 5.2 | 0.0 | 0.00 | 0.00 | 0.00 | 79 | 1004.8 |
| 20260505063515 | 48 | 144 | 5.2 | 0.0 | 0.00 | 0.00 | 0.00 | 79 | 1004.8 |
| 20260505063015 | 48 | 133 | 3.5 | 0.0 | 0.00 | 0.00 | 0.00 | 80 | 1004.8 |
| 20260505062514 | 48 | 135 | 2.6 | 0.0 | 0.00 | 0.00 | 0.00 | 80 | 1004.8 |
| 20260505062013 | 48 | 223 | 1.7 | 0.0 | 0.00 | 0.00 | 0.00 | 81 | 1004.8 |
| 20260505061524 | 48 | 223 | 0.9 | 0.0 | 0.00 | 0.00 | 0.00 | 81 | 1004.7 |
| 20260505061012 | 48 | 223 | 0.9 | 0.0 | 0.00 | 0.00 | 0.00 | 81 | 1004.8 |
| 20260505060512 | 48 | 222 | 2.6 | 0.0 | 0.00 | 0.00 | 0.00 | 79 | 1004.8 |
| 20260505060112 | 48 | 138 | 3.5 | 0.0 | 0.00 | 0.00 | 0.00 | 80 | 1004.8 |
| 20260505055511 | 48 | 138 | 4.3 | 0.0 | 0.00 | 0.00 | 0.00 | 80 | 1004.8 |
| 20260505055012 | 48 | 133 | 4.3 | 0.0 | 0.00 | 0.00 | 0.00 | 80 | 1004.8 |
| 20260505054518 | 48 | 133 | 4.3 | 0.0 | 0.00 | 0.00 | 0.00 | 80 | 1004.8 |
| 20260505054011 | 48 | 132 | 4.3 | 0.0 | 0.00 | 0.00 | 0.00 | 80 | 1004.8 |
| 20260505053511 | 48 | 134 | 5.2 | 0.0 | 0.00 | 0.00 | 0.00 | 80 | 1004.9 |
| 20260505053011 | 48 | 132 | 5.2 | 0.0 | 0.00 | 0.00 | 0.00 | 80 | 1004.9 |